Météo par heure à Jugi

Ce jour, 20 Juin, Dimanche

Heure Température Précipitation Vent Pression Humidité
00:00 +20°C° 0 mm 3 m/s 752 mmHg 87%
01:00 +19°C° 0 mm 3 m/s 752 mmHg 89%
02:00 +19°C° 0 mm 3 m/s 752 mmHg 90%
03:00 +19°C° 0 mm 3 m/s 752 mmHg 92%
04:00 +18°C° 0 mm 3 m/s 752 mmHg 93%
05:00 +20°C° 0 mm 3 m/s 752 mmHg 86%
06:00 +22°C° 0 mm 3 m/s 752 mmHg 79%
07:00 +23°C° 0 mm 4 m/s 752 mmHg 72%
08:00 +26°C° 0 mm 4 m/s 752 mmHg 66%
09:00 +27°C° 0 mm 4 m/s 752 mmHg 60%
10:00 +28°C° 0 mm 4 m/s 752 mmHg 55%
11:00 +29°C° 0 mm 4 m/s 752 mmHg 54%
12:00 +29°C° 0 mm 4 m/s 751 mmHg 52%
13:00 +30°C° 0 mm 3 m/s 751 mmHg 51%
14:00 +30°C° 0 mm 4 m/s 751 mmHg 53%
15:00 +30°C° 0 mm 4 m/s 750 mmHg 56%
16:00 +29°C° 0 mm 5 m/s 750 mmHg 58%
17:00 +28°C° 0.1 mm 4 m/s 750 mmHg 65%
18:00 +27°C° 0.1 mm 4 m/s 750 mmHg 73%
19:00 +25°C° 0.1 mm 3 m/s 749 mmHg 80%
20:00 +24°C° 0 mm 3 m/s 749 mmHg 83%
21:00 +22°C° 0 mm 3 m/s 749 mmHg 87%
22:00 +21°C° 0 mm 3 m/s 749 mmHg 90%
23:00 +21°C° 0 mm 3 m/s 749 mmHg 91%

Demain, 21 Juin, Lundi

Heure Température Précipitation Vent Pression Humidité
00:00 +20°C° 0 mm 3 m/s 749 mmHg 91%
01:00 +20°C° 0 mm 3 m/s 749 mmHg 91%
02:00 +20°C° 0 mm 3 m/s 749 mmHg 91%
03:00 +19°C° 0 mm 3 m/s 749 mmHg 91%
04:00 +19°C° 0 mm 3 m/s 749 mmHg 91%
05:00 +20°C° 0 mm 4 m/s 749 mmHg 86%
06:00 +22°C° 0 mm 5 m/s 749 mmHg 80%
07:00 +23°C° 0 mm 5 m/s 749 mmHg 74%
08:00 +26°C° 0 mm 6 m/s 749 mmHg 69%
09:00 +27°C° 0 mm 6 m/s 748 mmHg 63%
10:00 +28°C° 0 mm 6 m/s 748 mmHg 58%
11:00 +28°C° 0 mm 6 m/s 748 mmHg 56%
12:00 +29°C° 0 mm 5 m/s 748 mmHg 54%
13:00 +29°C° 0 mm 5 m/s 748 mmHg 52%
14:00 +29°C° 0 mm 5 m/s 747 mmHg 55%
15:00 +29°C° 0 mm 4 m/s 747 mmHg 57%
16:00 +28°C° 0 mm 4 m/s 747 mmHg 60%
17:00 +27°C° 0 mm 4 m/s 747 mmHg 65%
18:00 +26°C° 0 mm 4 m/s 747 mmHg 71%
19:00 +25°C° 0 mm 3 m/s 747 mmHg 77%
20:00 +24°C° 0.1 mm 3 m/s 747 mmHg 82%
21:00 +22°C° 0.1 mm 3 m/s 747 mmHg 86%
22:00 +21°C° 0.1 mm 3 m/s 747 mmHg 91%
23:00 +21°C° 0.1 mm 3 m/s 747 mmHg 92%

Après-demain, 22 Juin, Mardi

Heure Température Précipitation Vent Pression Humidité
00:00 +20°C° 0.1 mm 3 m/s 747 mmHg 93%
01:00 +20°C° 0.1 mm 3 m/s 747 mmHg 93%
02:00 +20°C° 0.1 mm 3 m/s 747 mmHg 94%
03:00 +20°C° 0.1 mm 3 m/s 747 mmHg 94%
04:00 +20°C° 0.1 mm 2 m/s 747 mmHg 95%
05:00 +21°C° 0 mm 3 m/s 747 mmHg 89%
06:00 +24°C° 0 mm 3 m/s 747 mmHg 83%
07:00 +25°C° 0 mm 3 m/s 748 mmHg 77%
08:00 +27°C° 0.2 mm 3 m/s 748 mmHg 72%
09:00 +28°C° 0.2 mm 3 m/s 748 mmHg 67%
10:00 +29°C° 0.2 mm 2 m/s 748 mmHg 63%
11:00 +29°C° 1.6 mm 2 m/s 748 mmHg 65%
12:00 +29°C° 1.6 mm 2 m/s 748 mmHg 67%
13:00 +28°C° 1.6 mm 2 m/s 748 mmHg 69%
14:00 +28°C° 2 mm 2 m/s 748 mmHg 71%
15:00 +27°C° 2 mm 2 m/s 749 mmHg 74%
16:00 +27°C° 2 mm 3 m/s 749 mmHg 77%
17:00 +26°C° 0.3 mm 2 m/s 749 mmHg 81%
18:00 +25°C° 0.3 mm 2 m/s 749 mmHg 85%
19:00 +24°C° 0.3 mm 1 m/s 749 mmHg 89%
20:00 +23°C° 0.1 mm 1 m/s 749 mmHg 90%
21:00 +23°C° 0.1 mm 1 m/s 749 mmHg 91%
22:00 +22°C° 0.1 mm 1 m/s 749 mmHg 92%
23:00 +21°C° 0 mm 1 m/s 749 mmHg 93%

23 Juin, Mercredi

Heure Température Précipitation Vent Pression Humidité
00:00 +20°C° 0 mm 2 m/s 749 mmHg 95%
01:00 +20°C° 0 mm 2 m/s 749 mmHg 96%
02:00 +20°C° 0 mm 2 m/s 749 mmHg 96%
03:00 +20°C° 0 mm 2 m/s 750 mmHg 96%
04:00 +20°C° 0 mm 2 m/s 750 mmHg 96%
05:00 +21°C° 0 mm 2 m/s 750 mmHg 91%
06:00 +24°C° 0 mm 2 m/s 750 mmHg 86%
07:00 +25°C° 0 mm 2 m/s 750 mmHg 81%
08:00 +27°C° 0 mm 2 m/s 750 mmHg 75%
09:00 +29°C° 0 mm 2 m/s 750 mmHg 69%
10:00 +30°C° 0 mm 3 m/s 750 mmHg 63%
11:00 +31°C° 0.3 mm 3 m/s 750 mmHg 60%
12:00 +33°C° 0.3 mm 3 m/s 750 mmHg 57%
13:00 +33°C° 0.3 mm 3 m/s 750 mmHg 55%
14:00 +33°C° 0.4 mm 3 m/s 750 mmHg 57%
15:00 +31°C° 0.4 mm 3 m/s 750 mmHg 59%
16:00 +31°C° 0.4 mm 3 m/s 750 mmHg 62%
17:00 +28°C° 2.2 mm 3 m/s 750 mmHg 68%
18:00 +25°C° 2.2 mm 3 m/s 750 mmHg 75%
19:00 +21°C° 2.2 mm 3 m/s 751 mmHg 81%
20:00 +21°C° 0.5 mm 3 m/s 751 mmHg 82%
21:00 +20°C° 0.5 mm 3 m/s 751 mmHg 83%
22:00 +20°C° 0.5 mm 2 m/s 752 mmHg 84%
23:00 +20°C° 0 mm 3 m/s 752 mmHg 88%

24 Juin, Jeudi

Heure Température Précipitation Vent Pression Humidité
00:00 +19°C° 0 mm 3 m/s 752 mmHg 92%
01:00 +19°C° 0 mm 3 m/s 752 mmHg 95%
02:00 +19°C° 0 mm 3 m/s 752 mmHg 95%
03:00 +18°C° 0 mm 3 m/s 752 mmHg 95%
04:00 +17°C° 0 mm 3 m/s 752 mmHg 95%
05:00 +18°C° 0 mm 3 m/s 753 mmHg 90%
06:00 +19°C° 0 mm 3 m/s 753 mmHg 84%
07:00 +20°C° 0 mm 3 m/s 753 mmHg 78%
08:00 +21°C° 0 mm 3 m/s 753 mmHg 72%
09:00 +24°C° 0 mm 3 m/s 753 mmHg 66%
10:00 +25°C° 0 mm 3 m/s 754 mmHg 60%
11:00 +26°C° 0 mm 3 m/s 753 mmHg 57%
12:00 +27°C° 0 mm 2 m/s 753 mmHg 54%
13:00 +28°C° 0 mm 2 m/s 753 mmHg 51%
14:00 +28°C° 0 mm 1 m/s 753 mmHg 51%
15:00 +29°C° 0 mm 1 m/s 753 mmHg 50%
16:00 +29°C° 0 mm 1 m/s 752 mmHg 49%
17:00 +28°C° 0 mm 1 m/s 752 mmHg 55%
18:00 +27°C° 0 mm 1 m/s 752 mmHg 62%
19:00 +25°C° 0 mm 1 m/s 751 mmHg 68%
20:00 +24°C° 0 mm 2 m/s 751 mmHg 71%
21:00 +23°C° 0 mm 2 m/s 751 mmHg 74%
22:00 +21°C° 0 mm 2 m/s 751 mmHg 78%
23:00 +20°C° 0.4 mm 3 m/s 751 mmHg 82%

25 Juin, Vendredi

Heure Température Précipitation Vent Pression Humidité
00:00 +20°C° 0.4 mm 3 m/s 750 mmHg 85%
01:00 +20°C° 0.4 mm 3 m/s 750 mmHg 89%
02:00 +19°C° 6 mm 4 m/s 750 mmHg 91%
03:00 +19°C° 6 mm 5 m/s 750 mmHg 94%
04:00 +18°C° 6 mm 7 m/s 751 mmHg 96%
05:00 +19°C° 1 mm 5 m/s 750 mmHg 93%
06:00 +20°C° 1 mm 3 m/s 750 mmHg 91%
07:00 +20°C° 1 mm 2 m/s 750 mmHg 88%
08:00 +23°C° 0.1 mm 2 m/s 750 mmHg 82%
09:00 +25°C° 0.1 mm 2 m/s 750 mmHg 76%
10:00 +26°C° 0.1 mm 3 m/s 750 mmHg 70%
11:00 +26°C° 0.2 mm 3 m/s 750 mmHg 71%
12:00 +26°C° 0.2 mm 4 m/s 750 mmHg 72%
13:00 +26°C° 0.2 mm 4 m/s 750 mmHg 74%
14:00 +25°C° 0.3 mm 5 m/s 750 mmHg 76%
15:00 +25°C° 0.3 mm 5 m/s 750 mmHg 79%
16:00 +23°C° 0.3 mm 6 m/s 750 mmHg 82%
17:00 +21°C° 0 mm 6 m/s 751 mmHg 84%
18:00 +19°C° 0 mm 6 m/s 751 mmHg 86%
19:00 +16°C° 0 mm 6 m/s 752 mmHg 87%
20:00 +15°C° 0 mm 5 m/s 752 mmHg 88%
21:00 +15°C° 0 mm 4 m/s 753 mmHg 89%
22:00 +14°C° 0 mm 4 m/s 753 mmHg 90%
23:00 +14°C° 0 mm 3 m/s 753 mmHg 91%
Voir plus

Nous avons besoin de votre consentement

Meteoprog et ses fournisseurs de services peuvent stocker et accéder à des données personnelles telles que des cookies, des identifiants d'appareils ou d'autres technologies similaires sur votre appareil et traiter ces données pour personnaliser le contenu et les publicités, ainsi que pour fournir des fonctionnalités de médias sociaux et analyser le trafic.

  • Stocker et/ou accéder à des informations sur votre appareil

    Des cookies, des identifiants d'appareils ou d'autres informations peuvent être stockés ou accessibles sur votre appareil aux fins indiquées ci-dessus.

  • Annonces et contenus personnalisés, mesure des annonces et des contenus, connaissance de l'audience et développement de produits

    Les annonces et le contenu peuvent être personnalisés en fonction d'un profil. D'autres données peuvent être ajoutées pour mieux personnaliser les annonces et le contenu. Les performances des publicités et du contenu peuvent être mesurées. Il est possible d'obtenir des informations sur le public qui a vu les publicités et le contenu. Ces données peuvent être utilisées pour développer ou améliorer l'expérience de l'utilisateur, les systèmes et les logiciels.

En cliquant sur "J'accepte", vous autorisez l'utilisation de cookies, des identifiants d'appareils, des balises web ou d'autres technologies similaires. Vos paramètres peuvent être modifiés dans le navigateur de votre appareil.

Dans certains cas, des intérêts légitimes peuvent être invoqués plutôt qu'un consentement. Vous pouvez en savoir plus à ce sujet dans notre Politique de confidentialité et de cookies.